This demonstration page uses our WeatherBlox Daily Observations layout. Learn more.

Left ArrowRight Arrow

39.92423, -83.80882

Hourly Observations for October 19, 2020

Temp ( °F °C ) Dew Point ( °F °C ) Humidity (%) Winds ( mph kmh ) Pressure ( in mb ) Visibility ( mi km ) Precip ( " mm )
12:56 am 00:56 Cloudy with Light Rain 51 10.6 51 10.6 100 100 Calm 30.21 1023 10 16.0934 0.001 0.001
1:24 am 01:24 Cloudy with Light Rain 52 11 52 11 100 100 Calm 30.2 1023 10 16.0934 0.001 0.001
1:56 am 01:56 Cloudy with Light Rain 51 10.6 51 10.6 100 100 N 5 7 30.2 1023 10 16.0934 0.001 0.001
2:14 am 02:14 Cloudy with Light Rain 52 11 52 11 100 100 Calm 30.19 1022 9 14.48406 0.01 0.254
2:56 am 02:56 Cloudy with Light Rain 51 10.6 51 10.6 100 100 Calm 30.2 1023 6 9.65604 0.02 0.508
3:56 am 03:56 Cloudy with Light Rain 51 10.6 51 10.6 100 100 NE 3 6 30.19 1022 5 8.0467 0.02 0.508
4:17 am 04:17 Cloudy with Heavy Rain 52 11 52 11 100 100 Calm 30.19 1022 2.5 4.02335 0 0
6:15 am 06:15 Cloudy with Rain 52 11 52 11 100 100 E 7 11 30.18 1022 2.5 4.02335 0.01 0.254
6:21 am 06:21 Cloudy with Rain 52 11 52 11 100 100 E 9 15 30.17 1022 3 4.82802 0.01 0.254
6:25 am 06:25 Cloudy with Rain 52 11 52 11 100 100 E 6 9 30.19 1022 3 4.82802 0.01 0.254
6:42 am 06:42 Cloudy with Rain 52 11 52 11 100 100 E 9 15 30.18 1022 4 6.43736 0.02 0.508
6:56 am 06:56 Cloudy with Rain 51 10.6 51 10.6 100 100 E 8 13 30.17 1022 5 8.0467 0.02 0.508
7:30 am 07:30 Cloudy with Rain 52 11 52 11 100 100 E 7 11 30.18 1022 7 11.26538 0 0
7:41 am 07:41 Cloudy with Rain 52 11 52 11 100 100 ESE 8 13 30.18 1022 5 8.0467 0 0
7:56 am 07:56 Cloudy with Rain 50 10 50 10 100 100 E 8 13 30.17 1022 5 8.0467 0 0
8:56 am 08:56 Cloudy with Rain 51 10.6 51 10.6 100 100 E 7 11 30.17 1022 4 6.43736 0 0
9:56 am 09:56 Cloudy with Rain 51 10.6 51 10.6 100 100 ENE 5 7 30.18 1022 5 8.0467 0.01 0.254
10:35 am 10:35 Cloudy with Light Rain 52 11 52 11 100 100 E 3 6 30.16 1021 6 9.65604 0.01 0.254
10:56 am 10:56 Cloudy with Light Rain 52 11.1 52 11.1 100 100 NNE 6 9 30.17 1022 5 8.0467 0.01 0.254
11:14 am 11:14 Cloudy with Light Rain 52 11 52 11 100 100 N 9 15 30.17 1022 6 9.65604 0.001 0.001
11:56 am 11:56 Cloudy with Light Rain 51 10.6 51 10.6 100 100 NNE 8 13 30.16 1022 5 8.0467 0.01 0.254
12:12 pm 12:12 Cloudy with Light Rain 52 11 52 11 100 100 NE 7 11 30.16 1021 2.5 4.02335 0.001 0.001
12:53 pm 12:53 Cloudy with Mist and Fog 50 10 50 10 100 100 NE 8 13 30.17 1022 4 6.43736 0.02 0.508
12:56 pm 12:56 Cloudy 50 10 50 10 100 100 NE 8 13 30.17 1022 7 11.26538 0.02 0.508
1:52 pm 13:52 Cloudy with Light Rain 48 9 48 9 100 100 NE 8 13 30.16 1021 2 3.21868 0.01 0.254
1:56 pm 13:56 Cloudy with Light Rain 49 9.4 49 9.4 100 100 NNE 8 13 30.16 1021 2.5 4.02335 0.01 0.254
2:04 pm 14:04 Cloudy with Light Rain 48 9 48 9 100 100 NNE 9 15 30.16 1021 4 6.43736 0.01 0.254
2:56 pm 14:56 Cloudy 50 10 50 10 100 100 NE 7 11 30.14 1021 9 14.48406 0.02 0.508
3:28 pm 15:28 Cloudy with Mist and Fog 50 10 50 10 100 100 NE 7 11 30.12 1020 2 3.21868 0.01 0.254
3:51 pm 15:51 Cloudy with Mist and Fog 50 10 50 10 100 100 ENE 7 11 30.13 1020 3 4.82802 0.01 0.254
3:56 pm 15:56 Cloudy with Mist and Fog 50 10 50 10 100 100 ENE 6 9 30.13 1020 2.5 4.02335 0.01 0.254
4:37 pm 16:37 Cloudy with Light Rain 50 10 50 10 100 100 NE 3 6 30.13 1020 1.5 2.41401 0.01 0.254
4:47 pm 16:47 Cloudy with Light Rain 52 11 52 11 100 100 NE 5 7 30.12 1020 2 3.21868 0.02 0.508
4:56 pm 16:56 Cloudy with Light Rain 51 10.6 51 10.6 100 100 NE 6 9 30.12 1020 1.75 2.816345 0.02 0.508
5:09 pm 17:09 Cloudy with Mist and Fog 52 11 52 11 100 100 NE 6 9 30.12 1020 2.5 4.02335 0.001 0.001
5:35 pm 17:35 Cloudy with Mist and Fog 52 11 52 11 100 100 ENE 5 7 30.12 1020 4 6.43736 0.001 0.001
5:56 pm 17:56 Cloudy 51 10.6 51 10.6 100 100 NE 5 7 30.12 1020 8 12.87472 0.01 0.254
6:32 pm 18:32 Cloudy with Light Rain 52 11 52 11 100 100 E 5 7 30.12 1020 2 3.21868 0.01 0.254
6:56 pm 18:56 Cloudy with Light Rain 51 10.6 51 10.6 100 100 E 3 6 30.11 1020 1.5 2.41401 0.01 0.254
7:11 pm 19:11 Cloudy with Light Rain 52 11 52 11 100 100 NNE 3 6 30.12 1020 2.5 4.02335 0.01 0.254
7:21 pm 19:21 Cloudy with Light Rain 52 11 52 11 100 100 NNE 3 6 30.12 1020 4 6.43736 0.01 0.254
7:48 pm 19:48 Cloudy with Light Rain 52 11 52 11 100 100 NNE 3 6 30.12 1020 2.5 4.02335 0.02 0.508
7:56 pm 19:56 Cloudy with Light Rain 51 10.6 51 10.6 100 100 N 3 6 30.13 1020 3 4.82802 0.02 0.508
8:03 pm 20:03 Cloudy with Light Rain 52 11 52 11 100 100 N 3 6 30.13 1020 2.5 4.02335 0.001 0.001
8:14 pm 20:14 Cloudy with Light Rain 52 11 52 11 100 100 NNW 3 6 30.13 1020 3 4.82802 0.001 0.001
8:56 pm 20:56 Cloudy with Mist and Fog 51 10.6 51 10.6 100 100 NNW 5 7 30.12 1020 6 9.65604 0.02 0.508
9:27 pm 21:27 Cloudy with Light Rain 52 11 52 11 100 100 N 5 7 30.14 1021 2 3.21868 0.001 0.001
9:56 pm 21:56 Cloudy with Light Rain 51 10.6 51 10.6 100 100 N 6 9 30.13 1020 2.5 4.02335 0.01 0.254
10:30 pm 22:30 Cloudy with Light Rain 52 11 52 11 100 100 E 5 7 30.12 1020 4 6.43736 0.01 0.254
10:51 pm 22:51 Cloudy with Light Rain 52 11 52 11 100 100 ENE 3 6 30.13 1020 8 12.87472 0.01 0.254
10:56 pm 22:56 Cloudy with Light Rain 51 10.6 51 10.6 100 100 ENE 3 6 30.13 1020 10 16.0934 0.01 0.254
11:23 pm 23:23 Cloudy with Rain 52 11 52 11 100 100 N 6 9 30.12 1020 4 6.43736 0.01 0.254
11:56 pm 23:56 Cloudy with Light Rain 51 10.6 51 10.6 100 100 NE 6 9 30.12 1020 7 11.26538 0.02 0.508

Powered by AerisWeather